Waarnemingen

Advertentie
Mijn weer
Abbeville, Frankrijk (7005): temperatuur & dauwpunt: 09.10.2019 21:00:00 - 15.10.2019 21:00:00 (CEST)Abbeville, Frankrijk (7005): temperatuur 5cm: 09.10.2019 21:00:00 - 15.10.2019 21:00:00 (CEST)Abbeville, Frankrijk (7005): temperatuur -20cm & temperatuur -100cm: 09.10.2019 21:00:00 - 15.10.2019 21:00:00 (CEST)Abbeville, Frankrijk (7005): windsnelheid & windstoten: 09.10.2019 21:00:00 - 15.10.2019 21:00:00 (CEST)Abbeville, Frankrijk (7005): windrichting: 09.10.2019 21:00:00 - 15.10.2019 21:00:00 (CEST)Abbeville, Frankrijk (7005): luchtdruk: 09.10.2019 21:00:00 - 15.10.2019 21:00:00 (CEST)Abbeville, Frankrijk (7005): zicht: 09.10.2019 21:00:00 - 15.10.2019 21:00:00 (CEST)Abbeville, Frankrijk (7005): Zonneschijnduur: 09.10.2019 21:00:00 - 15.10.2019 21:00:00 (CEST)Abbeville, Frankrijk (7005): neerslag: 09.10.2019 21:00:00 - 15.10.2019 21:00:00 (CEST)
Datum & Tijd tt [°C] td [°C] tt 5cm [°C] tt -20cm [°C] tt -100cm [°C] ff [km/u] ff [kn] fx [km/u] fx [kn] dd ppp [hPa] vv [km] sd [min] rr [mm]
15.10.2019 21:00:00 12,3 9,3 11,5 15,3 14,8 9 5 21 12 ZZW 1008,0 20 0 0,0
15.10.2019 20:00:00 12,9 8,8 11,8 15,4 14,8 4 2 9 5 ZZW 1007,9 20 0 0,0
15.10.2019 19:00:00 13,9 8,7 13,2 15,4 14,8 4 2 16 9 ZZW 1007,1 19 33 0,0
15.10.2019 18:00:00 14,8 9,4 15,2 15,3 14,8 5 3 18 10 ZZW 1006,5 20 17 0,0
15.10.2019 17:00:00 16,1 9,5 16,1 15,2 14,8 11 6 22 12 ZW 1006,6 20 26 0,0
15.10.2019 16:00:00 15,6 9,7 16,4 15,1 14,8 8 4 27 14 ZW 1006,7 20 8 0,0
15.10.2019 15:00:00 15,1 9,9 16,0 14,9 14,8 10 6 23 12 ZW 1006,6 20 0 0,0
15.10.2019 14:00:00 15,3 9,6 17,3 14,6 14,7 9 5 26 14 ZZW 1006,7 20 16 0,0
15.10.2019 13:00:00 16,2 10,5 16,6 14,5 14,8 14 7 27 15 ZZW 1006,7 20 52 0,0
15.10.2019 12:00:00 15,3 10,7 14,5 14,4 14,8 11 6 29 16 ZZW 1006,7 20 28 0,0
15.10.2019 11:00:00 14,1 12,0 13,6 14,5 14,8 12 7 23 12 WZW 1006,4 20 0 0,0
15.10.2019 10:00:00 13,2 11,8 12,0 14,5 14,7 8 4 14 8 ZZO 1005,9 20 0 0,0
15.10.2019 09:00:00 12,3 10,7 11,6 14,7 14,8 6 3 13 7 ZZO 1005,5 20 1 0,0
15.10.2019 08:00:00 12,8 10,9 12,1 14,7 14,8 7 4 15 8 Z 1005,1 20 0 0,0
15.10.2019 07:00:00 12,7 10,9 12,0 14,9 14,8 8 4 16 9 Z 1005,4 20 0 0,0
15.10.2019 06:00:00 13,0 11,1 12,5 15,0 14,8 6 4 14 8 ZZW 1005,0 20 0 0,0
15.10.2019 05:00:00 13,6 11,6 13,0 15,0 14,7 7 4 16 9 Z 1005,1 20 0 0,0
15.10.2019 04:00:00 13,9 11,6 13,3 15,1 14,8 7 4 18 10 ZZW 1004,8 20 0 0,0
15.10.2019 03:00:00 14,3 11,8 13,9 15,2 14,8 7 4 20 11 ZZW 1005,4 20 0 0,0
15.10.2019 02:00:00 14,7 12,2 14,3 15,3 14,7 8 4 20 11 ZZW 1005,4 20 0 0,0
15.10.2019 01:00:00 14,7 12,4 14,1 15,4 14,7 9 5 25 14 ZZW 1005,5 20 0 0,0
15.10.2019 00:00:00 15,1 13,1 14,5 15,5 14,8 11 6 30 16 ZZW 1005,1 20 0 0,0
14.10.2019 23:00:00 15,1 13,1 14,4 15,6 14,7 10 5 30 16 ZZW 1004,0 20 0 0,0
14.10.2019 22:00:00 15,1 13,3 14,2 15,7 14,8 11 6 32 17 Z 1004,1 20 0 0,0
14.10.2019 21:00:00 15,3 13,7 14,1 15,8 14,7 19 10 26 14 ZO 1003,7 20 0 1,2
14.10.2019 20:00:00 15,1 13,1 14,3 15,8 14,7 17 9 63 34 WZW 1004,7 10 0 8,6
14.10.2019 19:00:00 20,7 14,8 19,1 15,7 14,7 14 8 28 15 ZO 1002,2 20 0 0,0
14.10.2019 18:00:00 20,7 14,3 20,1 15,6 14,7 14 7 30 16 ZO 1002,8 20 4 0,0
14.10.2019 17:00:00 21,1 14,7 20,9 15,4 14,7 17 9 29 16 ZO 1003,3 20 5 0,0
14.10.2019 16:00:00 21,0 14,4 21,0 15,1 14,7 15 8 25 13 ZO 1003,8 20 3 0,0
14.10.2019 15:00:00 20,9 14,8 21,0 14,9 14,7 15 8 35 19 ZO 1004,8 20 32 0,0
14.10.2019 14:00:00 20,0 15,0 20,5 14,6 14,7 16 9 32 17 ZZO 1005,8 20 33 0,0
14.10.2019 13:00:00 18,7 15,0 17,9 14,5 14,7 19 10 32 17 ZO 1006,4 20 26 0,0
14.10.2019 12:00:00 16,9 14,4 16,5 14,3 14,7 15 8 30 16 OZO 1007,0 20 6 0,0
14.10.2019 11:00:00 15,9 13,9 14,4 14,3 14,7 18 10 29 16 OZO 1007,8 20 15 0,0
14.10.2019 10:00:00 14,2 13,2 13,3 14,4 14,7 15 8 23 12 OZO 1008,6 20 0 0,0
14.10.2019 09:00:00 13,4 12,6 12,6 14,4 14,7 16 9 26 14 O 1009,0 20 0 0,0
14.10.2019 08:00:00 13,0 12,4 12,5 14,4 14,7 15 8 20 11 ONO 1009,5 13 0 1,6
14.10.2019 07:00:00 13,0 12,2 12,6 14,5 14,7 5 3 13 7 O 1010,8 6 0 0,4
14.10.2019 06:00:00 13,1 12,3 12,4 14,6 14,7 9 5 19 10 O 1011,1 13 0 0,0
14.10.2019 05:00:00 12,8 12,0 12,4 14,7 14,7 8 4 12 7 O 1011,9 10 0 0,0
14.10.2019 04:00:00 12,9 12,1 12,3 14,7 14,7 8 5 13 7 O 1012,0 15 0 0,0
14.10.2019 03:00:00 13,2 12,1 12,5 14,8 14,7 5 3 8 5 O 1012,4 20 0 0,0
14.10.2019 02:00:00 13,5 12,4 12,8 14,9 14,7 4 2 8 4 ZZO 1013,2 20 0 0,2
14.10.2019 01:00:00 13,4 12,3 12,8 15,0 14,7 3 2 9 5 ZZW 1013,6 19 0 0,0
14.10.2019 00:00:00 13,5 12,6 13,0 15,1 14,7 4 2 12 7 ZZW 1012,7 20 0 0,0
13.10.2019 23:00:00 13,6 12,7 12,7 15,2 14,7 6 3 11 6 ZW 1012,4 20 0 0,0
13.10.2019 22:00:00 13,4 12,3 12,5 15,3 14,7 5 3 11 6 ZZW 1011,8 20 0 0,0
13.10.2019 21:00:00 13,9 12,8 12,9 15,4 14,7 5 3 21 12 ZZW 1011,0 20 0 0,0
13.10.2019 20:00:00 14,5 13,4 13,9 15,6 14,7 12 7 27 15 WZW 1010,5 7 0 0,8
13.10.2019 19:00:00 14,7 13,2 14,0 15,6 14,7 15 8 35 19 WZW 1009,5 12 0 0,4
13.10.2019 18:00:00 15,0 13,5 14,2 15,6 14,7 23 12 41 22 W 1008,6 20 0 0,4
13.10.2019 17:00:00 15,7 12,3 14,8 15,5 14,7 31 17 55 30 W 1007,9 19 0 0,2
13.10.2019 16:00:00 19,9 15,7 18,4 15,4 14,7 11 6 29 16 ZZW 1006,3 20 0 0,0
13.10.2019 15:00:00 19,8 15,6 19,1 15,2 14,7 10 6 30 16 ZZW 1006,0 20 0 0,0
13.10.2019 14:00:00 20,2 15,2 20,1 15,0 14,7 16 9 40 22 ZW 1005,8 20 0 0,0
13.10.2019 13:00:00 21,5 15,6 21,0 14,7 14,7 19 11 45 24 ZZW 1005,0 20 23 0,0
13.10.2019 12:00:00 20,1 14,9 21,0 14,4 14,7 17 9 46 25 Z 1005,0 20 38 0,0
13.10.2019 11:00:00 19,6 15,3 18,9 14,3 14,7 16 9 37 20 Z 1005,0 20 41 0,0
13.10.2019 10:00:00 18,1 15,9 16,5 14,2 14,7 11 6 24 13 ZZO 1005,5 20 18 0,0
13.10.2019 09:00:00 16,7 14,7 15,3 14,2 14,7 11 6 22 12 ZZO 1005,9 20 0 0,0
13.10.2019 08:00:00 15,9 13,9 14,5 14,2 14,7 10 5 16 9 ZZO 1005,6 20 0 0,0
13.10.2019 07:00:00 14,8 13,3 13,4 14,3 14,7 8 4 15 8 ZO 1006,2 20 0 0,0
13.10.2019 06:00:00 14,3 12,8 13,4 14,4 14,7 6 4 11 6 OZO 1006,6 18 0 0,0
13.10.2019 05:00:00 14,0 12,7 12,5 14,5 14,7 5 3 13 7 ZO 1006,9 20 0 0,0
13.10.2019 04:00:00 13,7 12,3 12,5 14,6 14,7 9 5 14 7 ZZO 1007,3 18 0 0,0
13.10.2019 03:00:00 13,8 12,0 12,7 14,7 14,7 8 4 13 7 ZO 1008,0 20 0 0,0
13.10.2019 02:00:00 14,5 12,0 13,2 14,8 14,7 5 3 16 9 Z 1008,2 20 0 0,0
13.10.2019 01:00:00 15,3 12,6 14,2 14,9 14,7 11 6 19 10 ZZO 1008,4 20 0 0,0
13.10.2019 00:00:00 15,6 12,7 14,4 15,1 14,7 8 4 15 8 Z 1009,0 20 0 0,0
12.10.2019 23:00:00 15,8 12,5 14,8 15,2 14,7 8 4 16 9 Z 1009,2 20 0 0,0
12.10.2019 22:00:00 16,2 12,9 15,3 15,3 14,7 9 5 22 12 Z 1009,1 20 0 0,0
12.10.2019 21:00:00 16,4 13,7 15,5 15,3 14,7 11 6 21 11 Z 1008,9 20 0 0,0
12.10.2019 20:00:00 17,2 13,7 16,5 15,4 14,8 7 4 17 9 Z 1009,3 18 0 0,0
12.10.2019 19:00:00 17,5 13,6 16,7 15,3 14,8 7 4 24 13 Z 1008,9 18 0 0,0
12.10.2019 18:00:00 18,3 13,6 18,2 15,2 14,7 10 6 25 14 Z 1008,7 20 10 0,0
12.10.2019 17:00:00 18,7 12,9 19,4 15,0 14,7 9 5 27 15 Z 1009,1 20 42 0,0
12.10.2019 16:00:00 18,8 13,6 18,5 14,7 14,8 12 7 30 16 Z 1009,5 20 13 0,0
12.10.2019 15:00:00 19,1 12,8 20,6 14,4 14,8 14 7 31 17 Z 1009,7 20 44 0,0
12.10.2019 14:00:00 18,6 13,2 19,2 14,1 14,8 11 6 32 18 Z 1010,2 20 15 0,0
12.10.2019 13:00:00 19,3 13,7 18,7 13,9 14,8 13 7 31 17 ZZW 1010,5 19 18 0,0
12.10.2019 12:00:00 17,2 12,7 18,1 13,7 14,8 14 8 31 17 ZZW 1010,2 20 25 0,0
12.10.2019 11:00:00 16,7 12,2 18,0 13,6 14,8 13 7 32 17 ZZW 1010,0 20 41 0,0
12.10.2019 10:00:00 16,4 12,7 15,2 13,5 14,8 12 6 30 16 ZW 1009,8 20 49 0,0
12.10.2019 09:00:00 14,8 11,8 13,8 13,5 14,8 11 6 28 15 ZZW 1009,3 20 27 0,0
12.10.2019 08:00:00 14,1 11,6 13,3 13,6 14,8 9 5 25 14 ZZW 1009,2 20 0 0,0
12.10.2019 07:00:00 13,6 11,3 12,7 13,7 14,8 9 5 27 14 ZZW 1009,2 20 0 0,0
12.10.2019 06:00:00 13,3 11,2 12,1 13,8 14,8 10 5 20 11 Z 1009,1 20 0 0,0
12.10.2019 05:00:00 13,3 10,8 12,4 13,8 14,8 8 4 20 11 ZZW 1009,1 20 0 0,0
12.10.2019 04:00:00 14,5 11,6 13,1 13,9 14,8 11 6 24 13 ZW 1009,3 20 0 0,0
12.10.2019 03:00:00 13,9 11,1 13,0 14,1 14,8 7 4 21 11 ZZW 1009,5 20 0 0,0
12.10.2019 02:00:00 14,4 11,4 13,5 14,1 14,8 9 5 20 11 ZZW 1009,5 20 0 0,0
12.10.2019 01:00:00 15,0 11,4 14,0 14,2 14,8 8 4 24 13 ZW 1009,6 20 0 0,0
12.10.2019 00:00:00 16,3 11,7 15,2 14,3 14,8 10 6 28 15 ZZW 1009,4 20 0 0,0
11.10.2019 23:00:00 16,9 12,0 16,0 14,3 14,8 12 6 27 14 Z 1009,9 20 0 0,0
11.10.2019 22:00:00 16,7 12,2 15,9 14,3 14,8 9 5 24 13 ZZW 1010,1 20 0 0,0
11.10.2019 21:00:00 16,8 12,3 16,2 14,3 14,8 7 4 20 11 Z 1010,2 20 0 0,0
11.10.2019 20:00:00 17,0 12,5 16,4 14,3 14,9 9 5 26 14 Z 1010,4 20 0 0,0
11.10.2019 19:00:00 17,2 12,5 16,8 14,3 14,9 12 6 33 18 ZZW 1010,7 20 0 0,0
11.10.2019 18:00:00 17,2 12,9 16,9 14,1 14,9 10 6 30 16 ZZW 1010,6 20 0 0,0
11.10.2019 17:00:00 17,7 13,0 18,0 13,8 14,9 14 8 39 21 ZZW 1010,8 20 17 0,0
11.10.2019 16:00:00 18,3 13,4 18,2 13,6 14,9 14 8 42 23 ZZW 1011,1 20 20 0,0
11.10.2019 15:00:00 17,3 12,2 17,9 13,4 14,9 17 9 40 22 ZZW 1011,6 20 3 0,0
11.10.2019 14:00:00 17,8 12,3 17,9 13,1 14,9 13 7 42 23 ZZW 1012,2 20 6 0,0
11.10.2019 13:00:00 17,0 11,9 16,7 13,0 14,9 17 9 41 22 ZZW 1012,9 20 5 0,0
11.10.2019 12:00:00 15,7 12,1 15,2 12,9 14,9 12 7 32 17 ZZW 1013,1 20 0 0,0
11.10.2019 11:00:00 15,1 11,9 14,9 12,8 14,9 13 7 31 17 ZZW 1013,7 20 0 0,0
11.10.2019 10:00:00 14,5 11,6 13,9 12,7 14,9 13 7 29 15 ZZW 1013,8 20 0 0,0
11.10.2019 09:00:00 14,0 11,3 13,3 12,7 14,9 9 5 23 13 Z 1013,6 20 0 0,0
11.10.2019 08:00:00 13,8 11,1 13,2 12,6 14,9 9 5 23 12 Z 1013,8 20 0 0,0
11.10.2019 07:00:00 13,6 11,1 13,1 12,6 14,9 7 4 18 10 Z 1014,1 20 0 0,0
11.10.2019 06:00:00 13,4 11,1 12,8 12,6 15,0 7 4 25 13 ZZW 1014,7 20 0 0,0
11.10.2019 05:00:00 13,0 10,5 11,9 12,6 14,9 9 5 25 13 ZZW 1015,0 20 0 0,0
11.10.2019 04:00:00 12,5 9,7 11,6 12,7 15,0 6 4 13 7 ZZW 1015,3 20 0 0,0
11.10.2019 03:00:00 12,5 9,3 11,8 12,8 15,0 7 4 22 12 Z 1015,3 20 0 0,0
11.10.2019 02:00:00 12,7 9,3 11,3 12,8 15,0 8 4 15 8 Z 1015,7 20 0 0,0
11.10.2019 01:00:00 12,5 8,8 11,1 12,9 15,0 8 4 18 10 Z 1015,8 20 0 0,0
11.10.2019 00:00:00 12,2 8,3 10,8 13,0 14,9 9 5 17 9 Z 1016,0 20 0 0,0
10.10.2019 23:00:00 12,1 8,8 9,7 13,2 15,0 8 5 14 8 Z 1016,6 20 0 0,0
10.10.2019 22:00:00 11,3 8,2 9,7 13,3 15,0 5 3 11 6 Z 1016,6 20 0 0,0
10.10.2019 21:00:00 11,8 8,3 10,5 13,4 15,0 5 3 14 7 ZZW 1016,8 20 0 0,0
10.10.2019 20:00:00 13,1 8,6 12,0 13,5 15,0 6 4 18 10 ZZW 1017,1 20 0 0,0
10.10.2019 19:00:00 14,5 8,9 14,0 13,4 15,0 9 5 25 13 ZW 1016,8 20 0 0,0
10.10.2019 18:00:00 15,5 8,7 15,3 13,3 15,0 14 7 38 21 WZW 1016,6 20 30 0,0
10.10.2019 17:00:00 16,5 8,5 16,1 13,1 15,0 18 10 42 23 WZW 1016,4 20 50 0,0
10.10.2019 16:00:00 16,0 9,0 16,1 12,9 15,0 31 17 46 25 W 1016,7 20 38 0,0
10.10.2019 15:00:00 15,1 10,1 14,6 12,7 15,0 24 13 44 24 W 1016,4 17 27 0,0
10.10.2019 14:00:00 16,0 9,9 14,6 12,4 15,0 25 13 49 27 W 1016,4 20 35 0,0
10.10.2019 13:00:00 15,7 10,2 14,0 12,2 15,0 26 14 48 26 W 1016,3 19 42 0,0
10.10.2019 12:00:00 13,7 11,9 12,0 12,1 15,0 13 7 43 23 W 1016,0 20 14 0,2
10.10.2019 11:00:00 12,1 10,7 11,1 12,0 15,0 10 5 22 12 WZW 1015,6 18 4 0,8
10.10.2019 10:00:00 11,2 9,6 10,1 12,0 15,0 6 4 14 7 ZZW 1014,9 3,8 10 0,4
10.10.2019 09:00:00 10,6 7,8 10,1 12,1 15,0 4 2 22 12 Z 1014,0 20 17 0,0
10.10.2019 08:00:00 11,6 8,1 9,7 12,2 15,0 15 8 26 14 W 1013,2 20 0 0,0
10.10.2019 07:00:00 11,1 8,3 9,2 12,3 15,0 12 7 20 11 W 1012,2 20 0 0,0
10.10.2019 06:00:00 10,6 8,7 9,2 12,3 15,0 6 3 19 10 ZW 1011,6 20 0 0,0
10.10.2019 05:00:00 10,7 9,0 9,4 12,4 15,0 11 6 22 12 W 1011,2 20 0 0,0
10.10.2019 04:00:00 11,2 9,3 9,7 12,5 15,0 18 10 34 19 W 1010,4 20 0 0,4
10.10.2019 03:00:00 10,4 9,2 9,0 12,5 15,0 9 5 25 13 ZW 1009,9 20 0 0,0
10.10.2019 02:00:00 10,7 9,8 9,7 12,6 15,1 17 9 26 14 W 1009,5 20 0 0,6
10.10.2019 01:00:00 10,7 9,9 9,7 12,6 15,0 15 8 27 15 WZW 1009,6 14 0 1,0
10.10.2019 00:00:00 10,4 9,8 9,3 12,8 15,1 12 6 29 15 ZW 1009,2 20 0 0,4
09.10.2019 23:00:00 9,8 9,0 8,5 12,9 15,1 6 3 32 17 Z 1009,3 20 0 1,0
09.10.2019 22:00:00 10,4 9,0 9,6 13,0 15,1 32 17 66 36 WZW 1009,9 4,1 0 7,5
09.10.2019 21:00:00 10,6 9,0 9,8 13,0 15,0 5 3 23 13 ZZW 1009,5 19 0 1,2

tt = temperatuur
td = dauwpunt
tt 5cm = temperatuur 5cm
tt -20cm = temperatuur -20cm
tt -100cm = temperatuur -100cm
ff = windsnelheid
fx = windstoten
dd = windrichting
ppp = luchtdruk
vv = zicht
sd = Zonneschijnduur
rr = neerslag

Weerstations in de omgeving